TimeEDT,TemperatureF,Dew PointF,Humidity,Sea Level PressureIn,VisibilityMPH,Wind Direction,Wind SpeedMPH,Gust SpeedMPH,PrecipitationIn,Events,Conditions,WindDirDegrees,DateUTC
12:51 AM,62.1,59.0,90,30.05,10.0,Calm,Calm,-,N/A,,Clear,0,2013-08-01 04:51:00
1:51 AM,60.1,59.0,96,30.04,10.0,Calm,Calm,-,N/A,,Clear,0,2013-08-01 05:51:00
2:51 AM,60.1,59.0,96,30.02,10.0,Calm,Calm,-,N/A,,Clear,0,2013-08-01 06:51:00
3:51 AM,57.0,55.9,96,30.01,10.0,Calm,Calm,-,N/A,,Clear,0,2013-08-01 07:51:00
4:51 AM,57.9,57.0,97,30.00,10.0,Calm,Calm,-,N/A,,Clear,0,2013-08-01 08:51:00
5:51 AM,55.9,55.0,97,30.01,10.0,Calm,Calm,-,N/A,,Clear,0,2013-08-01 09:51:00
6:25 AM,57.2,55.4,94,30.01,10.0,Calm,Calm,-,N/A,,Partly Cloudy,0,2013-08-01 10:25:00
6:51 AM,57.9,57.9,100,30.01,9.0,Calm,Calm,-,N/A,,Clear,0,2013-08-01 10:51:00
7:24 AM,62.6,60.8,94,30.02,7.0,Calm,Calm,-,N/A,,Scattered Clouds,0,2013-08-01 11:24:00
7:32 AM,60.8,60.8,100,30.01,2.5,Calm,Calm,-,N/A,,Mostly Cloudy,0,2013-08-01 11:32:00
7:42 AM,62.6,60.8,94,30.02,5.0,Calm,Calm,-,N/A,,Scattered Clouds,0,2013-08-01 11:42:00
7:51 AM,63.0,61.0,93,30.02,8.0,Calm,Calm,-,N/A,,Mostly Cloudy,0,2013-08-01 11:51:00
8:16 AM,64.4,60.8,88,30.01,10.0,Calm,Calm,-,N/A,,Scattered Clouds,0,2013-08-01 12:16:00
8:51 AM,68.0,62.1,81,30.00,10.0,Calm,Calm,-,N/A,,Clear,0,2013-08-01 12:51:00
9:51 AM,73.0,62.1,68,29.98,10.0,ESE,4.6,-,N/A,,Clear,120,2013-08-01 13:51:00
10:51 AM,78.1,61.0,56,29.96,10.0,SSE,6.9,-,N/A,,Clear,160,2013-08-01 14:51:00
11:51 AM,79.0,60.1,52,29.94,10.0,SSE,8.1,-,N/A,,Clear,160,2013-08-01 15:51:00
12:51 PM,80.1,60.1,50,29.92,10.0,SSE,11.5,21.9,N/A,,Partly Cloudy,150,2013-08-01 16:51:00
1:51 PM,79.0,59.0,50,29.91,10.0,SSE,9.2,18.4,N/A,,Mostly Cloudy,150,2013-08-01 17:51:00
2:51 PM,75.0,60.1,60,29.90,10.0,SSE,6.9,-,0.00,Rain,Light Rain,150,2013-08-01 18:51:00
3:51 PM,77.0,62.1,60,29.90,10.0,South,9.2,-,0.00,,Overcast,180,2013-08-01 19:51:00
4:51 PM,73.0,63.0,71,29.90,10.0,South,6.9,-,N/A,,Overcast,180,2013-08-01 20:51:00
5:51 PM,70.0,66.0,87,29.90,9.0,West,4.6,-,0.00,Rain,Light Rain,260,2013-08-01 21:51:00
6:51 PM,71.1,61.0,70,29.90,10.0,SSW,9.2,-,0.00,,Overcast,200,2013-08-01 22:51:00
7:51 PM,69.1,61.0,75,29.90,10.0,Variable,5.8,-,N/A,,Overcast,0,2013-08-01 23:51:00
8:51 PM,68.0,62.1,81,29.91,10.0,SSE,5.8,-,0.00,,Overcast,160,2013-08-02 00:51:00
9:51 PM,66.0,63.0,90,29.89,8.0,SSE,5.8,-,0.00,Rain,Light Rain,160,2013-08-02 01:51:00
10:51 PM,64.9,62.1,90,29.89,4.0,SW,5.8,-,0.03,Rain,Rain,220,2013-08-02 02:51:00
11:24 PM,64.4,62.6,94,29.89,2.5,WSW,3.5,-,0.03,Rain,Rain,240,2013-08-02 03:24:00
11:36 PM,64.4,62.6,94,29.88,3.0,SW,3.5,-,0.06,Rain,Rain,220,2013-08-02 03:36:00
11:43 PM,64.4,62.6,94,29.88,2.0,Calm,Calm,-,0.09,Rain,Heavy Rain,0,2013-08-02 03:43:00
11:51 PM,64.0,64.0,100,29.88,2.0,Calm,Calm,-,0.13,Rain,Heavy Rain,0,2013-08-02 03:51:00